Whiteman AFB, MO

3:03 PM CST on January 23, 2018 (GMT -0600)
Whiteman Air Force Base

Weather History for KSZL - September, 2012

Change the Weather History Date:

Thursday, September 27, 2012

  Actual Average Record
Temperature  
Mean Temperature 68 °F -  
Max Temperature 73 °F 73 °F 87 °F (1998)
Min Temperature 62 °F 51 °F 42 °F (2010)
Cooling Degree Days 2    
Growing Degree Days 18 (Base 50)    
Moisture  
Dew Point 64 °F    
Average Humidity 96    
Maximum Humidity 100    
Minimum Humidity 65    
Precipitation  
Precipitation 0.03 in - - ()
Sea Level Pressure  
Sea Level Pressure 30.12 in    
Wind  
Wind Speed 3 mph (NE)    
Max Wind Speed 7 mph    
Max Gust Speed -    
Visibility 5 miles    
Events Fog , Rain    
Averages and records for this station are not official NWS values.
T = Trace of Precipitation, MM = Missing Value Source: NWS Daily Summary

Daily Weather History Graph

Daily Weather History Graph

Search for Another Location

Airport or City:

Trip Planner

Search our weather history database for the weather conditions in past years. The results will help you decide how hot, cold, wet, or windy it might be!

Date:

Astronomy

Sep. 27, 2012 Rise Set
Actual Time 7:06 AM CDT 7:02 PM CDT
Civil Twilight 6:40 AM CDT 7:28 PM CDT
Nautical Twilight 6:09 AM CDT 7:59 PM CDT
Astronomical Twilight 5:38 AM CDT 8:30 PM CDT
Moon 5:33 PM CDT (9/27) 4:37 AM CDT (9/27)
Length of Visible Light 12h 48m
Length of Day
11h 55m
Waxing Gibbous, 94% of the Moon is Illuminated
Sep 27
Waxing Gibbous
Sep 29
Full
Oct 8
Last Quarter
Oct 15
New
Oct 21
First Quarter

Hourly Weather History & Observations

Time (CDT) Temp. Dew Point Humidity Pressure Visibility Wind Dir Wind Speed Gust Speed Precip Events Conditions
12:02 AM 64.4 °F 64.4 °F 100% 30.09 in 8.0 mi Calm Calm - N/A   Overcast
12:55 AM 64.9 °F 64.9 °F 100% 30.09 in 8.0 mi Calm Calm - N/A   Overcast
1:08 AM 64.4 °F 64.4 °F 100% 30.10 in 9.0 mi Calm Calm - N/A   Overcast
1:19 AM 64.4 °F 64.4 °F 100% 30.10 in 9.0 mi Calm Calm - N/A   Overcast
1:43 AM 64.4 °F 64.4 °F 100% 30.10 in 8.0 mi Calm Calm - N/A   Light Drizzle
1:55 AM 64.9 °F 64.9 °F 100% 30.10 in 6.0 mi Calm Calm - 0.01 in Rain Light Rain
1:56 AM 64.4 °F 64.4 °F 100% 30.10 in 5.0 mi Calm Calm - N/A Rain Light Rain
2:04 AM 64.4 °F 64.4 °F 100% 30.09 in 4.0 mi Calm Calm - N/A Rain Light Rain
2:16 AM 64.4 °F 64.4 °F 100% 30.08 in 3.0 mi NE 4.6 mph - N/A   Overcast
2:55 AM 64.4 °F 64.4 °F 100% 30.09 in 4.0 mi Calm Calm - 0.01 in   Mostly Cloudy
3:23 AM 64.4 °F 64.4 °F 100% 30.09 in 4.0 mi Calm Calm - N/A   Light Drizzle
3:33 AM 64.4 °F 64.4 °F 100% 30.09 in 4.0 mi North 4.6 mph - N/A   Overcast
3:55 AM 64.0 °F 64.0 °F 100% 30.09 in 3.0 mi NNE 6.9 mph - 0.00 in   Overcast
3:57 AM 64.4 °F 64.4 °F 100% 30.09 in 3.0 mi NE 4.6 mph - N/A   Overcast
4:03 AM 64.4 °F 64.4 °F 100% 30.10 in 2.5 mi NE 3.5 mph - N/A   Overcast
4:08 AM 64.4 °F 64.4 °F 100% 30.10 in 2.5 mi NNE 4.6 mph - N/A   Overcast
4:16 AM 64.4 °F 64.4 °F 100% 30.10 in 1.5 mi North 6.9 mph - N/A   Overcast
4:20 AM 64.4 °F 64.4 °F 100% 30.10 in 1.0 mi North 5.8 mph - N/A   Overcast
4:43 AM 64.4 °F 64.4 °F 100% 30.11 in 0.8 mi NNE 4.6 mph - N/A   Mist
4:55 AM 63.7 °F 63.7 °F 100% 30.11 in 0.8 mi NNE 4.6 mph - N/A   Mist
4:57 AM 64.4 °F 64.4 °F 100% 30.11 in 0.8 mi NNE 3.5 mph - N/A   Mist
5:01 AM 64.4 °F 64.4 °F 100% 30.11 in 0.5 mi NNE 3.5 mph - N/A Fog Fog
5:06 AM 64.4 °F 64.4 °F 100% 30.11 in 0.5 mi NNE 3.5 mph - N/A Fog Fog
5:12 AM 64.4 °F 64.4 °F 100% 30.11 in 0.5 mi NNE 4.6 mph - N/A Fog Fog
5:55 AM 63.5 °F 63.5 °F 100% 30.10 in 0.5 mi NE 5.8 mph - 0.00 in Fog Light Drizzle
6:07 AM 62.6 °F 62.6 °F 100% 30.12 in 0.5 mi Calm Calm - N/A Fog Fog
6:30 AM 64.4 °F 64.4 °F 100% 30.12 in 0.5 mi NNE 4.6 mph - N/A Fog Fog
6:38 AM 62.6 °F 62.6 °F 100% 30.12 in 0.5 mi NNE 5.8 mph - N/A Fog Fog
6:42 AM 62.6 °F 62.6 °F 100% 30.13 in 0.8 mi NNE 3.5 mph - N/A   Mist
6:55 AM 63.3 °F 63.3 °F 100% 30.13 in 0.8 mi Calm Calm - 0.00 in   Mist
6:56 AM 62.6 °F 62.6 °F 100% 30.13 in 1.0 mi NNW 3.5 mph - N/A   Mist
6:57 AM 62.6 °F 62.6 °F 100% 30.14 in 1.0 mi Calm Calm - N/A   Mist
7:03 AM 62.6 °F 62.6 °F 100% 30.14 in 1.2 mi Calm Calm - N/A   Light Drizzle
7:16 AM 62.6 °F 62.6 °F 100% 30.14 in 0.5 mi NNE 3.5 mph - N/A Fog Light Drizzle
7:18 AM 62.6 °F 62.6 °F 100% 30.14 in 0.5 mi NNE 4.6 mph - N/A Fog Fog
7:34 AM 62.6 °F 62.6 °F 100% 30.14 in 0.8 mi NNE 5.8 mph - N/A   Mist
7:43 AM 62.6 °F 62.6 °F 100% 30.14 in 1.5 mi NNE 4.6 mph - N/A   Overcast
7:55 AM 63.0 °F 63.0 °F 100% 30.14 in 1.5 mi NNE 5.8 mph - 0.00 in   Overcast
8:14 AM 62.6 °F 62.6 °F 100% 30.15 in 2.0 mi Calm Calm - N/A   Overcast
8:41 AM 62.6 °F 62.6 °F 100% 30.15 in 1.8 mi NNE 5.8 mph - N/A   Overcast
8:55 AM 62.8 °F 62.8 °F 100% 30.15 in 1.0 mi NNE 6.9 mph - N/A   Overcast
9:14 AM 62.6 °F 62.6 °F 100% 30.15 in 3.0 mi NE 3.5 mph - N/A   Overcast
9:55 AM 63.1 °F 63.1 °F 100% 30.15 in 8.0 mi NE 6.9 mph - N/A   Overcast
10:19 AM 64.4 °F 64.4 °F 100% 30.15 in 10.0 mi NE 6.9 mph - N/A   Mostly Cloudy
10:20 AM 64.4 °F 64.4 °F 100% 30.15 in 10.0 mi NNE 5.8 mph - N/A   Mostly Cloudy
10:55 AM 64.4 °F 64.4 °F 100% 30.16 in 10.0 mi NNE 6.9 mph - N/A   Overcast
11:55 AM 66.9 °F 66.0 °F 97% 30.13 in 10.0 mi NNE 5.8 mph - N/A   Mostly Cloudy
12:55 PM 69.6 °F 62.1 °F 77% 30.13 in 10.0 mi NE 5.8 mph - N/A   Mostly Cloudy
1:55 PM 73.0 °F 62.1 °F 68% 30.12 in 10.0 mi Variable 5.8 mph - N/A   Mostly Cloudy
2:20 PM 73.4 °F 60.8 °F 65% 30.11 in 10.0 mi North 5.8 mph - N/A   Mostly Cloudy
2:32 PM 73.4 °F 62.6 °F 69% 30.11 in 10.0 mi Variable 5.8 mph - N/A   Mostly Cloudy
2:55 PM 73.0 °F 61.7 °F 67% 30.11 in 10.0 mi NNE 5.8 mph - N/A   Mostly Cloudy
3:55 PM 72.7 °F 61.7 °F 68% 30.10 in 10.0 mi East 3.5 mph - N/A   Mostly Cloudy
4:55 PM 72.5 °F 62.6 °F 71% 30.10 in 10.0 mi East 3.5 mph - N/A   Partly Cloudy
5:55 PM 71.4 °F 64.0 °F 77% 30.09 in 10.0 mi East 3.5 mph - N/A   Overcast
6:55 PM 69.3 °F 63.7 °F 82% 30.09 in 10.0 mi NE 4.6 mph - N/A   Overcast
7:55 PM 68.5 °F 64.0 °F 85% 30.11 in 10.0 mi NE 3.5 mph - N/A   Mostly Cloudy
8:55 PM 67.5 °F 66.7 °F 98% 30.12 in 10.0 mi East 3.5 mph - N/A   Mostly Cloudy
9:55 PM 66.6 °F 66.6 °F 100% 30.12 in 6.0 mi ENE 4.6 mph - N/A   Overcast
10:28 PM 66.2 °F 66.2 °F 100% 30.12 in 10.0 mi East 4.6 mph - N/A   Light Drizzle
10:55 PM 65.5 °F 65.5 °F 100% 30.12 in 7.0 mi East 4.6 mph - 0.01 in Rain Light Rain
11:09 PM 64.4 °F 64.4 °F 100% 30.12 in 9.0 mi East 3.5 mph - N/A   Mostly Cloudy
11:19 PM 64.4 °F 64.4 °F 100% 30.12 in 10.0 mi East 4.6 mph - N/A   Light Drizzle
11:28 PM 64.4 °F 64.4 °F 100% 30.12 in 9.0 mi Variable 4.6 mph - N/A   Light Drizzle
11:34 PM 64.4 °F 64.4 °F 100% 30.13 in 9.0 mi NE 3.5 mph - N/A   Light Drizzle
11:55 PM 64.8 °F 64.8 °F 100% 30.13 in 8.0 mi NE 5.8 mph - 0.00 in   Light Drizzle